TimeAKDT,TemperatureF,Dew PointF,Humidity,Sea Level PressureIn,VisibilityMPH,Wind Direction,Wind SpeedMPH,Gust SpeedMPH,PrecipitationIn,Events,Conditions,WindDirDegrees,DateUTC
12:53 AM,48.9,46.0,90,29.68,10.0,Calm,Calm,-,N/A,,Overcast,0,2013-07-07 08:53:00
1:00 AM,48.2,46.4,93,29.68,10.0,Calm,Calm,-,N/A,,Overcast,0,2013-07-07 09:00:00
1:18 AM,48.2,44.6,87,29.67,10.0,Calm,Calm,-,N/A,,Overcast,0,2013-07-07 09:18:00
1:38 AM,48.2,46.4,93,29.66,10.0,Calm,Calm,-,N/A,,Overcast,0,2013-07-07 09:38:00
1:53 AM,48.0,46.0,93,29.66,10.0,Calm,Calm,-,N/A,,Overcast,0,2013-07-07 09:53:00
2:53 AM,48.0,46.0,93,29.66,10.0,Calm,Calm,-,N/A,,Overcast,0,2013-07-07 10:53:00
3:53 AM,48.0,45.0,89,29.65,10.0,Calm,Calm,-,N/A,,Overcast,0,2013-07-07 11:53:00
4:53 AM,48.0,45.0,89,29.63,10.0,Calm,Calm,-,N/A,,Mostly Cloudy,0,2013-07-07 12:53:00
5:20 AM,48.2,44.6,87,29.63,10.0,Calm,Calm,-,N/A,,Mostly Cloudy,0,2013-07-07 13:20:00
5:53 AM,48.0,45.0,89,29.62,10.0,Calm,Calm,-,N/A,,Mostly Cloudy,0,2013-07-07 13:53:00
6:53 AM,48.0,45.0,89,29.62,10.0,Calm,Calm,-,N/A,,Mostly Cloudy,0,2013-07-07 14:53:00
7:53 AM,48.0,46.0,93,29.62,10.0,Calm,Calm,-,N/A,,Overcast,0,2013-07-07 15:53:00
8:53 AM,50.0,46.0,86,29.61,10.0,Calm,Calm,-,0.00,,Overcast,0,2013-07-07 16:53:00
9:53 AM,52.0,46.0,80,29.61,10.0,Calm,Calm,-,N/A,,Overcast,0,2013-07-07 17:53:00
10:53 AM,52.0,46.9,83,29.61,10.0,ENE,5.8,-,N/A,,Overcast,70,2013-07-07 18:53:00
11:53 AM,51.1,48.0,89,29.62,4.0,ENE,5.8,-,N/A,,Overcast,60,2013-07-07 19:53:00
12:05 PM,50.0,48.2,94,29.62,2.0,ENE,6.9,-,0.01,Rain,Light Rain,60,2013-07-07 20:05:00
12:20 PM,51.8,48.2,88,29.62,1.5,NE,8.1,-,0.01,Rain,Light Rain,40,2013-07-07 20:20:00
12:27 PM,50.0,48.2,94,29.62,1.8,NE,9.2,-,0.02,Rain,Light Rain,40,2013-07-07 20:27:00
12:32 PM,50.0,48.2,94,29.62,2.0,NE,8.1,-,0.02,Rain,Light Rain,50,2013-07-07 20:32:00
12:53 PM,50.0,48.0,93,29.63,4.0,ENE,6.9,-,0.02,Rain,Light Rain,60,2013-07-07 20:53:00
12:56 PM,51.8,48.2,88,29.63,2.5,ENE,6.9,-,0.00,Rain,Light Rain,60,2013-07-07 20:56:00
1:27 PM,50.0,48.2,94,29.63,3.0,ENE,5.8,-,0.02,Rain,Light Rain,60,2013-07-07 21:27:00
1:53 PM,50.0,48.0,93,29.64,6.0,East,4.6,-,0.02,,Overcast,90,2013-07-07 21:53:00
2:53 PM,50.0,46.9,89,29.65,3.0,Calm,Calm,-,0.02,Rain,Light Rain,0,2013-07-07 22:53:00
3:00 PM,50.0,48.2,94,29.65,4.0,Calm,Calm,-,0.00,Rain,Light Rain,0,2013-07-07 23:00:00
3:16 PM,51.8,48.2,88,29.65,10.0,Calm,Calm,-,0.00,,Overcast,0,2013-07-07 23:16:00
3:19 PM,51.8,48.2,88,29.65,9.0,Calm,Calm,-,0.00,,Overcast,0,2013-07-07 23:19:00
3:53 PM,52.0,48.0,86,29.65,7.0,Calm,Calm,-,0.01,,Overcast,0,2013-07-07 23:53:00
4:22 PM,51.8,46.4,82,29.65,5.0,Calm,Calm,-,0.00,,Haze,0,2013-07-08 00:22:00
4:53 PM,52.0,46.0,80,29.65,7.0,ESE,3.5,-,0.00,,Overcast,120,2013-07-08 00:53:00
5:00 PM,51.8,48.2,88,29.65,10.0,NE,5.8,-,N/A,,Overcast,40,2013-07-08 01:00:00
5:51 PM,51.8,48.2,88,29.66,10.0,NE,4.6,-,0.00,,Overcast,50,2013-07-08 01:51:00
5:53 PM,51.1,48.0,89,29.66,10.0,ENE,3.5,-,0.00,,Overcast,60,2013-07-08 01:53:00
6:53 PM,51.1,46.9,86,29.68,10.0,Calm,Calm,-,N/A,,Overcast,0,2013-07-08 02:53:00
7:53 PM,50.0,46.9,89,29.68,10.0,Calm,Calm,-,0.00,,Overcast,0,2013-07-08 03:53:00
8:53 PM,50.0,46.9,89,29.69,10.0,Calm,Calm,-,N/A,,Overcast,0,2013-07-08 04:53:00
9:53 PM,50.0,48.0,93,29.70,10.0,Calm,Calm,-,N/A,,Overcast,0,2013-07-08 05:53:00
10:53 PM,50.0,48.0,93,29.71,10.0,Calm,Calm,-,N/A,,Overcast,0,2013-07-08 06:53:00
11:53 PM,50.0,46.9,89,29.71,10.0,Calm,Calm,-,N/A,,Overcast,0,2013-07-08 07:53:00